Date String (YYYY-MM-DD hh:mm:ss) UTC,Instrument flags,Ambient pressure (hPa),Sample flow (lpm),Bypass flow (lpm),Sample temperature (°C),Ambient temperature (°C),ASC tube jacket temperature (°C),LED temperature (°C),Box temperature (°C),Sample RH (%),Span deviation,Mass concentration (μg/m³),Mass concentration (μg/m³),Mass concentration (μg/m³)
DateTimeUTC,F1_M11,P_M11,Q1_M11,Q2_M11,T1_M11,T2_M11,T3_M11,T4_M11,T5_M11,U1_M11,ZSPAN_M11,X0_M11,X2_M11,X1_M11
2022-06-03 00:00:00,,0826.2,5.00,0.00,29.7,27.7,00.0,38.6,31.4,21.6,-000.7,0014.19,0008.83,0008.31
2022-06-03 00:01:00,,0826.2,5.01,0.00,29.7,27.8,00.0,38.6,31.4,22.0,-000.9,0014.40,0008.83,0008.25
2022-06-03 00:02:00,,0826.3,4.99,0.00,29.7,28.0,00.0,38.6,31.5,22.4,-000.8,0013.82,0008.74,0008.18
2022-06-03 00:03:00,,0826.3,5.00,0.00,29.7,28.1,00.0,38.6,31.5,21.8,-000.8,0013.95,0008.68,0008.10
2022-06-03 00:04:00,,0826.2,5.01,0.00,29.7,28.3,00.0,38.6,31.5,21.9,-001.4,0014.02,0008.63,0008.02
2022-06-03 00:05:00,,0826.3,5.00,0.00,29.7,28.4,00.0,38.6,31.6,21.8,-001.1,0014.80,0008.59,0007.94
2022-06-03 00:06:00,,0826.2,4.98,0.00,29.7,28.5,00.0,38.6,31.6,22.6,-001.0,0015.08,0008.55,0007.85
2022-06-03 00:07:00,,0826.2,5.01,0.00,29.8,28.6,00.0,38.6,31.7,22.1,-000.7,0015.29,0008.47,0007.76
2022-06-03 00:08:00,,0826.2,4.99,0.00,29.8,28.7,00.0,38.6,31.7,21.9,-000.3,0015.24,0008.38,0007.69
2022-06-03 00:09:00,,0826.2,5.00,0.00,29.8,28.8,00.0,38.6,31.7,21.7,-000.0,0015.18,0008.36,0007.66
2022-06-03 00:10:00,,0826.3,5.00,0.00,29.8,28.9,00.0,38.7,31.8,22.0,-000.1,0015.20,0008.33,0007.62
2022-06-03 00:11:00,,0826.3,5.00,0.00,29.9,29.0,00.0,38.7,31.8,22.1,-000.0,0015.20,0008.28,0007.57
2022-06-03 00:12:00,,0826.3,5.01,0.00,29.9,29.1,00.0,38.7,31.8,21.9,-000.3,0015.07,0008.21,0007.56
2022-06-03 00:13:00,,0826.3,5.01,0.00,29.9,29.1,00.0,38.7,31.9,21.8,-000.7,0015.14,0008.24,0007.56
2022-06-03 00:14:00,,0826.2,5.00,0.00,30.0,29.2,00.0,38.7,31.9,21.9,-000.7,0015.16,0008.23,0007.54
2022-06-03 00:15:00,,0826.3,5.00,0.00,30.0,29.0,00.0,38.7,31.9,21.5,-000.2,0015.32,0008.19,0007.50
2022-06-03 00:16:00,,0826.2,5.00,0.00,29.9,28.1,00.0,38.7,31.6,21.4,-000.5,0014.11,0008.15,0007.50
2022-06-03 00:17:00,,0826.2,5.01,0.00,29.8,27.7,00.0,38.6,31.5,21.9,-000.2,0013.90,0008.13,0007.51
2022-06-03 00:18:00,,0826.2,4.98,0.00,29.8,27.6,00.0,38.6,31.4,22.2,-000.7,0014.11,0008.15,0007.51
2022-06-03 00:19:00,,0826.3,5.00,0.00,29.7,27.7,00.0,38.6,31.4,22.0,-001.2,0014.68,0008.18,0007.52
2022-06-03 00:20:00,,0826.3,5.00,0.00,29.7,27.8,00.0,38.6,31.4,23.1,-001.6,0014.11,0008.15,0007.49
2022-06-03 00:21:00,,0826.3,4.99,0.00,29.7,28.0,00.0,38.6,31.5,23.6,-001.3,0013.92,0008.12,0007.47
2022-06-03 00:22:00,,0826.2,5.00,0.00,29.7,28.2,00.0,38.6,31.5,22.5,-001.4,0013.83,0008.09,0007.45
2022-06-03 00:23:00,,0826.2,5.00,0.00,29.7,28.3,00.0,38.6,31.6,22.4,-001.4,0013.71,0008.06,0007.43
2022-06-03 00:24:00,,0826.2,5.01,0.00,29.7,28.4,00.0,38.6,31.6,22.6,-001.9,0013.41,0008.02,0007.42
2022-06-03 00:25:00,,0826.2,4.99,0.00,29.7,28.5,00.0,38.6,31.6,22.7,-002.2,0013.27,0008.00,0007.40
2022-06-03 00:26:00,,0826.2,4.99,0.00,29.8,28.7,00.0,38.6,31.7,23.0,-002.3,0012.92,0007.93,0007.34
2022-06-03 00:27:00,,0826.3,5.00,0.00,29.8,28.7,00.0,38.6,31.7,22.6,-002.2,0013.10,0007.88,0007.28
2022-06-03 00:28:00,,0826.2,5.00,0.00,29.8,28.8,00.0,38.6,31.7,22.8,-002.7,0013.08,0007.84,0007.23
2022-06-03 00:29:00,,0826.2,4.99,0.00,29.8,28.9,00.0,38.6,31.8,22.0,-002.6,0012.62,0007.81,0007.20
2022-06-03 00:30:00,,0826.2,5.01,0.00,29.9,29.0,00.0,38.7,31.8,21.9,-002.4,0011.81,0007.71,0007.14
2022-06-03 00:31:00,,0826.2,5.00,0.00,29.9,29.0,00.0,38.7,31.8,21.7,-002.7,0012.00,0007.64,0007.08
2022-06-03 00:32:00,,0826.2,5.00,0.00,29.9,29.1,00.0,38.7,31.9,21.6,-001.8,0011.99,0007.60,0007.06
2022-06-03 00:33:00,,0826.2,5.00,0.00,30.0,29.2,00.0,38.7,31.9,21.6,-002.5,0012.20,0007.57,0007.02
2022-06-03 00:34:00,,0826.2,5.00,0.00,30.0,29.1,00.0,38.7,31.9,21.8,-000.4,0012.93,0007.52,0006.96
2022-06-03 00:35:00,,0826.2,4.99,0.00,29.9,28.2,00.0,38.7,31.7,21.6,0000.0,0013.58,0007.53,0006.93
2022-06-03 00:36:00,,0826.2,5.01,0.00,29.8,27.7,00.0,38.6,31.5,21.5,0000.0,0013.70,0007.50,0006.89
2022-06-03 00:37:00,,0826.2,5.00,0.00,29.8,27.6,00.0,38.6,31.4,21.5,0000.0,0013.52,0007.49,0006.88
2022-06-03 00:38:00,,0826.2,5.01,0.00,29.7,27.6,00.0,38.6,31.4,21.4,-000.7,0013.40,0007.50,0006.86
2022-06-03 00:39:00,,0826.2,5.00,0.00,29.7,27.8,00.0,38.6,31.4,21.6,-000.8,0013.81,0007.47,0006.84
2022-06-03 00:40:00,,0826.2,5.00,0.00,29.7,27.9,00.0,38.6,31.4,21.9,-000.5,0014.07,0007.40,0006.80
2022-06-03 00:41:00,,0826.2,5.00,0.00,29.7,28.1,00.0,38.6,31.5,21.9,-000.2,0014.08,0007.38,0006.78
2022-06-03 00:42:00,,0826.2,5.01,0.00,29.7,28.2,00.0,38.6,31.5,21.6,0000.1,0014.01,0007.39,0006.77
2022-06-03 00:43:00,,0826.2,5.01,0.00,29.7,28.4,00.0,38.6,31.6,21.7,0000.3,0013.68,0007.36,0006.74
2022-06-03 00:44:00,,0826.2,4.98,0.00,29.7,28.5,00.0,38.6,31.6,22.4,0000.4,0013.64,0007.32,0006.71
2022-06-03 00:45:00,,0826.2,5.00,0.00,29.7,28.6,00.0,38.6,31.7,22.0,0000.4,0012.72,0007.30,0006.67
2022-06-03 00:46:00,,0826.1,5.00,0.00,29.8,28.7,00.0,38.6,31.7,22.1,0000.3,0012.23,0007.24,0006.63
2022-06-03 00:47:00,,0826.2,5.00,0.00,29.8,28.8,00.0,38.6,31.7,22.1,0000.6,0011.85,0007.18,0006.59
2022-06-03 00:48:00,,0826.2,5.01,0.00,29.8,28.9,00.0,38.6,31.8,21.5,0000.8,0011.95,0007.16,0006.56
2022-06-03 00:49:00,,0826.2,4.99,0.00,29.8,29.0,00.0,38.7,31.8,21.6,0001.3,0011.89,0007.10,0006.53
2022-06-03 00:50:00,,0826.2,5.00,0.00,29.9,29.0,00.0,38.7,31.8,21.9,0001.6,0011.83,0007.05,0006.50
2022-06-03 00:51:00,,0826.1,5.00,0.00,29.9,29.1,00.0,38.7,31.9,21.7,0001.5,0011.77,0007.05,0006.47
2022-06-03 00:52:00,,0826.1,5.01,0.00,29.9,29.1,00.0,38.7,31.9,21.7,0001.5,0011.85,0007.03,0006.45
2022-06-03 00:53:00,,0826.2,4.98,0.00,30.0,29.2,00.0,38.7,31.9,21.8,0001.4,0011.74,0007.03,0006.45
2022-06-03 00:54:00,,0826.2,5.00,0.00,30.0,28.9,00.0,38.7,31.9,21.7,0001.4,0011.86,0007.05,0006.45
2022-06-03 00:55:00,,0826.2,5.01,0.00,29.9,28.0,00.0,38.6,31.6,22.3,0000.8,0011.83,0007.04,0006.45
2022-06-03 00:56:00,,0826.2,4.99,0.00,29.9,27.7,00.0,38.6,31.5,22.0,0000.3,0011.79,0007.04,0006.45
2022-06-03 00:57:00,,0826.2,5.01,0.00,29.8,27.6,00.0,38.6,31.4,22.5,0000.2,0012.13,0007.03,0006.45
2022-06-03 00:58:00,,0826.2,5.00,0.00,29.7,27.7,00.0,38.6,31.4,22.4,-000.1,0012.32,0007.02,0006.44
2022-06-03 00:59:00,,0826.2,4.99,0.00,29.7,27.8,00.0,38.6,31.4,22.0,-000.3,0012.19,0006.99,0006.43
